SCP
0 0 0 0 0 0 0 0 0 0 0 0 0 0 0 0 0 0 0 0 0 0 0 0 0 0 0 0 0 0 0 0 0 0 0 0 0 0
0 0 0 0 0 0 0 0 0 0 0 0 0 0 0 0 0 0 0 0 0 0 0 0 0 0 0 0 0 0 0 0 0 0 0 0 0 0
0 0 0 0 0 0 0 0 0 0 0 0 0 0 0 0 0 0 0 0 0 0 0 0 0 0 0 0 0 0 0 0 0 0 0 0 0 0
0 0 0 0 0 0 0 0 0 0 0 0 0 0 0 0 0 0 0 0 0 0 0 0 0 0 0 0 0 0 0 0 0 0 0 0 0 0
0 0 0 0 0 0 0 0 0 0 0 0 0 0 0 0 0 0 0 0 0 0 0 0 0 0 0 0 0 0 0 0 0 0 0 0 0 0
0 0 0 0 0 0 0 0 0 0 0 0 0 0 0 0 0 0 0 0 0 0 0 0 0 0 0 0 0 0 0 0 0 0 0 0 0 0
0 0 0 0 0 0 0 0 0 0 0 0 0 0 0 0 0 0 0 0 0 0 0 0 0 0 0 0 0 0 0 0 0 0 0 0 0 0
0 0 0 0 0 0 0 0 0 0 0 0 0 0 0 0 0 0 0 0 0 0 0 0 0 0 0 0 0 0 0 0 0 0 0 0 0 0
0 0 0 0 0 0 0 0 0 0 0 0 0 0 0 0 0 0 0 0 0 0 0 0 0 0 0 0 0 0 0 0 0 -0 -0 0 0 0
0 0 0 0 0 0 0 0 0 0 0 0 0 0 0 0 0 0 0 0 0 0 0 0 0 0 0 0 0 0 0 -0 -0 -0 -0 -0 -0 0
0 0 0 0 0 0 -0 -0 0 0 0 0 0 0 0 0 0 0 0 0 0 0 0 0 0 0 0 0 0 0 0 -0 -0 -0 -0 0 0 0
0 0 0 0 0 0 0 0 0 0 -0 -0 0 0 0 0 0 0 0 0 0 0 0 0 0 0 0 -0 -0 -0 -0 -0 -0 -0 -0 0 0 0
0 0 0 0 0 0 0 0 0 0 0 0 0 -0 -0 0 0 0 0 0 0 0 0 0 0 -0 0 -0 -0 -0 -0 0 0 0 0 0 0 0
0 0 0 0 0 0 0 -0 -0 -0 -0 -0 0 0 0 -0 -0 -0 0 -0 0 0 0 -0 -0 -0 -0 -0 -0 0 0 0 0 0 0 0 0 0
-0 -0 -0 -0 0 0 0 -0 -0 0 0 0 0 0 0 -0 0 -0 0 -0 -0 -0 -0 -0 -0 -0 -0 0 0 0 0 0 0 0 0 0 0 0
-0 -0 -0 0 0 0 0 0 0 0 0 0 -0 0 -0 0 0 0 -0 -0 -0 -0 -0 0 -0 0 -0 -0 0 0 0 0 0 0 0 0 0 0
-0 -0 -0 0 0 0 0 0 0 0 0 0 0 0 0 -0 -0 -0 0 0 0 -0 -0 -0 0 -0 0 0 0 0 0 0 0 0 0 0 0 0
-0 -0 -0 0 0 -0 0 0 -0 -0 0 -0 -0 0 0 0 0 0 0 0 0 0 -0 0 0 0 0 0 0 0 0 0 0 0 0 0 0 0
-0 -0 -0 0 0 -0 -0 0 0 0 -0 -0 -0 0 0 0 0 0 0 0 0 0 0 0 0 0 0 0 0 0 0 0 0 0 0 0 0 0
-0 -0 -0 0 0 -0 -0 -0 -0 -0 -0 -0 -0 -0 -0 0 0 0 0 0 0 0 0 0 0 0 0 0 0 0 0 0 0 0 0 0 0 0
-0 -0 -0 0 -0 0 0 0 0 -0 -0 0 0 0 0 0 0 0 0 0 0 0 0 0 0 0 0 0 0 0 0 0 0 0 0 0 0 0
0 0 0 -0 -0 -0 -0 0 0 -0 0 0 0 0 0 0 0 0 0 0 0 0 0 0 0 0 0 0 0 0 0 0 0 0 0 0 0 0
0 0 0 0 0 0 0 0 0 0 0 0 0 0 0 0 0 0 0 0 0 0 0 0 0 0 0 0 0 0 0 0 0 0 0 0 0 0
Wind_Speed_500mb
33 37 42 45 51 57 61 61 57 45 55 61 77 83 88 85 88 90 98 86 69 77 70 72 67 64 63 70 75 74 65 57 61 59 54 49 47 45
34 36 39 42 45 50 53 54 57 63 56 52 56 71 81 77 76 77 92 91 96 84 84 78 77 77 75 72 79 80 67 60 60 57 50 47 45 44
31 33 34 37 39 42 44 48 53 56 68 80 77 81 49 49 70 82 91 93 94 104 100 90 91 92 86 85 84 80 66 60 54 48 45 45 45 43
36 34 36 38 38 37 37 40 43 46 52 71 76 79 80 81 66 62 83 101 91 97 98 99 99 105 103 96 89 69 63 56 55 51 47 45 43 40
36 35 34 35 35 35 38 41 41 41 42 50 58 62 73 77 74 73 71 75 86 85 89 96 110 114 102 94 77 66 60 55 51 52 52 45 37 33
26 28 28 30 34 38 41 43 41 42 44 57 61 55 55 64 67 63 66 67 74 71 71 83 98 94 75 76 73 74 73 50 46 41 38 36 35 39
24 26 27 30 37 40 44 43 36 37 41 52 59 54 55 58 60 57 56 60 64 67 64 77 82 70 81 84 73 47 48 54 50 45 46 49 42 41
25 27 30 33 33 32 36 26 34 37 46 55 51 51 54 58 53 57 55 59 56 63 78 82 78 84 70 61 57 56 58 59 65 61 53 41 40 40
20 27 31 26 25 32 30 31 26 29 18 36 43 39 44 44 48 51 52 54 70 70 79 75 65 67 55 48 49 51 60 69 58 47 42 43 48 46
18 18 23 14 19 26 34 21 14 24 28 24 31 28 27 25 32 44 54 62 56 60 63 52 46 44 32 34 45 50 51 40 45 44 42 43 49 54
14 9 21 22 17 26 32 27 21 22 24 18 19 27 18 10 24 35 39 40 38 39 40 43 42 38 41 42 51 53 37 42 40 38 42 46 54 57
15 12 13 15 19 26 25 24 34 28 17 23 28 15 11 14 20 41 52 53 50 46 37 27 37 42 30 34 34 29 26 29 35 39 38 38 36 40
14 11 10 13 19 19 16 17 22 31 33 27 10 10 19 27 27 32 23 32 37 29 32 27 27 26 14 11 22 26 27 25 27 29 34 40 41 44
8 13 12 11 17 16 24 29 27 30 33 25 31 33 32 27 37 39 30 21 26 28 24 12 8 15 15 13 14 18 24 29 34 35 37 43 52 59
14 15 12 17 4 17 16 11 15 15 17 17 17 18 12 8 7 3 4 6 9 14 16 12 14 18 20 17 17 17 18 21 27 36 42 42 48 56
9 14 15 18 28 26 22 24 23 21 18 14 12 12 13 12 12 12 12 13 12 13 19 22 21 23 24 25 28 30 27 31 31 35 45 46 50 56
7 17 21 20 22 23 22 22 21 15 13 14 15 14 16 19 19 21 21 20 23 16 18 24 26 29 32 33 31 35 38 38 36 36 42 54 58 59
24 31 29 27 27 23 18 16 15 15 14 15 14 11 9 7 7 8 9 11 13 14 16 17 26 31 38 45 44 46 40 37 36 41 54 75 75 60
37 33 33 32 30 26 22 20 16 15 20 21 19 16 12 11 11 11 15 19 22 24 26 24 29 31 33 43 37 42 40 36 47 60 60 67 64 58
45 37 34 33 31 28 26 25 23 23 27 28 26 24 24 22 20 20 20 23 24 26 28 29 33 35 41 41 41 39 59 63 68 62 59 55 58 67
42 43 44 42 37 33 32 31 30 28 28 29 30 33 34 33 34 33 33 37 38 43 39 36 34 48 52 58 55 46 56 65 64 60 54 56 62 67
45 44 43 40 42 41 37 36 32 32 34 35 35 35 36 36 39 40 41 41 41 40 38 33 49 52 48 47 49 62 59 45 46 59 68 63 61 72
49 44 44 42 41 42 39 38 38 38 36 35 34 34 34 35 34 35 37 38 41 43 41 37 31 38 47 53 63 70 48 47 49 54 61 58 68 78
Wind_Direction_500mb
279 274 271 269 264 259 258 260 262 278 268 267 272 273 265 262 266 264 260 254 252 251 250 242 242 239 239 235 232 240 244 235 231 233 230 226 223 223
288 285 283 281 277 273 270 267 260 265 279 270 266 273 269 270 271 268 259 258 249 248 252 252 253 245 239 235 231 234 239 225 223 229 227 223 222 222
291 287 284 281 282 284 281 276 272 267 270 272 270 260 268 264 267 264 259 254 253 256 252 247 250 244 236 233 228 231 229 223 224 225 222 219 218 220
314 307 300 295 287 287 290 288 285 281 280 279 274 270 268 266 264 271 267 263 258 253 251 249 246 248 238 229 222 224 215 215 217 218 220 219 217 216
319 318 317 313 306 295 285 289 295 300 291 290 288 283 275 271 270 264 266 260 260 258 259 255 250 230 224 214 212 213 208 204 214 219 208 205 204 209
348 342 332 322 311 302 292 285 291 298 299 299 296 284 281 271 266 269 266 263 262 261 257 237 231 220 208 212 212 209 213 213 198 201 206 207 218 223
353 344 337 330 317 306 301 277 283 287 300 303 299 290 275 273 265 266 270 262 253 241 237 213 209 212 214 207 213 194 193 191 189 194 209 208 214 225
348 342 334 333 326 330 330 289 278 293 299 306 302 288 274 271 269 263 259 248 222 203 204 205 204 199 190 184 182 188 194 207 212 213 222 227 230 239
337 340 339 338 345 346 334 313 299 296 317 330 326 299 284 276 271 265 260 248 231 210 199 186 191 194 191 181 183 194 217 230 244 225 218 225 243 259
343 359 346 336 3 6 7 3 340 329 312 325 340 336 311 292 269 258 246 223 214 203 198 171 185 181 194 227 234 230 222 202 205 222 230 249 259 268
328 337 343 356 339 334 338 340 16 5 19 10 359 6 338 269 214 215 184 183 166 170 182 196 191 198 207 210 220 234 225 213 212 222 242 256 260 260
316 280 323 353 344 348 352 20 3 13 0 17 38 32 33 53 86 140 140 132 141 144 167 177 186 183 200 202 204 202 217 230 241 248 252 252 251 247
301 242 297 334 324 329 6 22 6 3 34 20 13 79 63 85 84 102 140 119 125 132 140 113 144 166 171 194 222 229 234 239 236 236 241 248 251 254
229 257 265 302 318 358 12 11 33 33 36 55 61 66 76 75 87 90 95 107 111 110 142 160 170 200 204 210 203 216 228 233 235 241 250 257 263 266
223 247 271 268 277 347 348 50 81 333 340 25 39 44 47 46 87 49 71 148 179 193 192 209 197 216 224 231 236 235 237 248 253 266 269 269 273 275
197 230 250 307 313 321 324 321 313 315 319 322 309 293 289 289 289 273 267 262 242 236 227 231 231 241 247 245 249 260 262 268 274 275 282 279 278 277
250 259 260 273 288 294 305 309 310 315 323 323 312 293 280 275 277 273 267 262 264 258 243 232 239 245 252 257 262 271 274 271 273 276 279 283 283 283
251 258 260 268 275 284 287 290 292 293 303 312 317 313 299 289 278 280 273 265 259 254 250 245 261 266 274 280 283 281 274 273 279 283 280 295 293 286
251 256 264 268 272 273 272 272 261 249 277 298 296 294 293 287 279 272 268 268 267 266 265 259 258 262 267 276 290 277 269 277 288 292 292 290 286 287
249 252 258 265 267 267 267 268 264 253 255 258 260 264 268 271 268 269 268 269 272 278 279 276 274 275 273 275 274 269 282 290 291 294 291 287 286 290
248 256 264 266 265 267 272 269 266 263 254 249 250 251 254 258 261 264 267 271 277 281 279 276 268 279 280 278 277 279 289 295 292 288 287 288 290 293
249 253 259 263 260 266 271 268 263 264 269 266 258 254 254 254 257 260 262 266 270 275 276 271 273 279 277 278 283 292 300 291 282 289 292 292 287 284
251 253 257 260 262 259 259 262 261 262 258 259 258 257 253 253 257 259 263 267 272 275 272 267 262 266 280 283 293 300 295 293 293 293 292 290 289 291
Wind_Speed_850mb
33 37 42 45 51 57 61 61 57 45 55 61 77 83 88 85 88 90 98 86 69 77 70 72 67 64 63 70 75 74 65 57 61 59 54 49 47 45
34 36 39 42 45 50 53 54 57 63 56 52 56 71 81 77 76 77 92 91 96 84 84 78 77 77 75 72 79 80 67 60 60 57 50 47 45 44
31 33 34 37 39 42 44 48 53 56 68 80 77 81 49 49 70 82 91 93 94 104 100 90 91 92 86 85 84 80 66 60 54 48 45 45 45 43
36 34 36 38 38 37 37 40 43 46 52 71 76 79 80 81 66 62 83 101 91 97 98 99 99 105 103 96 89 69 63 56 55 51 47 45 43 40
36 35 34 35 35 35 38 41 41 41 42 50 58 62 73 77 74 73 71 75 86 85 89 96 110 114 102 94 77 66 60 55 51 52 52 45 37 33
26 28 28 30 34 38 41 43 41 42 44 57 61 55 55 64 67 63 66 67 74 71 71 83 98 94 75 76 73 74 73 50 46 41 38 36 35 39
24 26 27 30 37 40 44 43 36 37 41 52 59 54 55 58 60 57 56 60 64 67 64 77 82 70 81 84 73 47 48 54 50 45 46 49 42 41
25 27 30 33 33 32 36 26 34 37 46 55 51 51 54 58 53 57 55 59 56 63 78 82 78 84 70 61 57 56 58 59 65 61 53 41 40 40
20 27 31 26 25 32 30 31 26 29 18 36 43 39 44 44 48 51 52 54 70 70 79 75 65 67 55 48 49 51 60 69 58 47 42 43 48 46
18 18 23 14 19 26 34 21 14 24 28 24 31 28 27 25 32 44 54 62 56 60 63 52 46 44 32 34 45 50 51 40 45 44 42 43 49 54
14 9 21 22 17 26 32 27 21 22 24 18 19 27 18 10 24 35 39 40 38 39 40 43 42 38 41 42 51 53 37 42 40 38 42 46 54 57
15 12 13 15 19 26 25 24 34 28 17 23 28 15 11 14 20 41 52 53 50 46 37 27 37 42 30 34 34 29 26 29 35 39 38 38 36 40
14 11 10 13 19 19 16 17 22 31 33 27 10 10 19 27 27 32 23 32 37 29 32 27 27 26 14 11 22 26 27 25 27 29 34 40 41 44
8 13 12 11 17 16 24 29 27 30 33 25 31 33 32 27 37 39 30 21 26 28 24 12 8 15 15 13 14 18 24 29 34 35 37 43 52 59
14 15 12 17 4 17 16 11 15 15 17 17 17 18 12 8 7 3 4 6 9 14 16 12 14 18 20 17 17 17 18 21 27 36 42 42 48 56
9 14 15 18 28 26 22 24 23 21 18 14 12 12 13 12 12 12 12 13 12 13 19 22 21 23 24 25 28 30 27 31 31 35 45 46 50 56
7 17 21 20 22 23 22 22 21 15 13 14 15 14 16 19 19 21 21 20 23 16 18 24 26 29 32 33 31 35 38 38 36 36 42 54 58 59
24 31 29 27 27 23 18 16 15 15 14 15 14 11 9 7 7 8 9 11 13 14 16 17 26 31 38 45 44 46 40 37 36 41 54 75 75 60
37 33 33 32 30 26 22 20 16 15 20 21 19 16 12 11 11 11 15 19 22 24 26 24 29 31 33 43 37 42 40 36 47 60 60 67 64 58
45 37 34 33 31 28 26 25 23 23 27 28 26 24 24 22 20 20 20 23 24 26 28 29 33 35 41 41 41 39 59 63 68 62 59 55 58 67
42 43 44 42 37 33 32 31 30 28 28 29 30 33 34 33 34 33 33 37 38 43 39 36 34 48 52 58 55 46 56 65 64 60 54 56 62 67
45 44 43 40 42 41 37 36 32 32 34 35 35 35 36 36 39 40 41 41 41 40 38 33 49 52 48 47 49 62 59 45 46 59 68 63 61 72
49 44 44 42 41 42 39 38 38 38 36 35 34 34 34 35 34 35 37 38 41 43 41 37 31 38 47 53 63 70 48 47 49 54 61 58 68 78
Wind_Direction_850mb
279 274 271 269 264 259 258 260 262 278 268 267 272 273 265 262 266 264 260 254 252 251 250 242 242 239 239 235 232 240 244 235 231 233 230 226 223 223
288 285 283 281 277 273 270 267 260 265 279 270 266 273 269 270 271 268 259 258 249 248 252 252 253 245 239 235 231 234 239 225 223 229 227 223 222 222
291 287 284 281 282 284 281 276 272 267 270 272 270 260 268 264 267 264 259 254 253 256 252 247 250 244 236 233 228 231 229 223 224 225 222 219 218 220
314 307 300 295 287 287 290 288 285 281 280 279 274 270 268 266 264 271 267 263 258 253 251 249 246 248 238 229 222 224 215 215 217 218 220 219 217 216
319 318 317 313 306 295 285 289 295 300 291 290 288 283 275 271 270 264 266 260 260 258 259 255 250 230 224 214 212 213 208 204 214 219 208 205 204 209
348 342 332 322 311 302 292 285 291 298 299 299 296 284 281 271 266 269 266 263 262 261 257 237 231 220 208 212 212 209 213 213 198 201 206 207 218 223
353 344 337 330 317 306 301 277 283 287 300 303 299 290 275 273 265 266 270 262 253 241 237 213 209 212 214 207 213 194 193 191 189 194 209 208 214 225
348 342 334 333 326 330 330 289 278 293 299 306 302 288 274 271 269 263 259 248 222 203 204 205 204 199 190 184 182 188 194 207 212 213 222 227 230 239
337 340 339 338 345 346 334 313 299 296 317 330 326 299 284 276 271 265 260 248 231 210 199 186 191 194 191 181 183 194 217 230 244 225 218 225 243 259
343 359 346 336 3 6 7 3 340 329 312 325 340 336 311 292 269 258 246 223 214 203 198 171 185 181 194 227 234 230 222 202 205 222 230 249 259 268
328 337 343 356 339 334 338 340 16 5 19 10 359 6 338 269 214 215 184 183 166 170 182 196 191 198 207 210 220 234 225 213 212 222 242 256 260 260
316 280 323 353 344 348 352 20 3 13 0 17 38 32 33 53 86 140 140 132 141 144 167 177 186 183 200 202 204 202 217 230 241 248 252 252 251 247
301 242 297 334 324 329 6 22 6 3 34 20 13 79 63 85 84 102 140 119 125 132 140 113 144 166 171 194 222 229 234 239 236 236 241 248 251 254
229 257 265 302 318 358 12 11 33 33 36 55 61 66 76 75 87 90 95 107 111 110 142 160 170 200 204 210 203 216 228 233 235 241 250 257 263 266
223 247 271 268 277 347 348 50 81 333 340 25 39 44 47 46 87 49 71 148 179 193 192 209 197 216 224 231 236 235 237 248 253 266 269 269 273 275
197 230 250 307 313 321 324 321 313 315 319 322 309 293 289 289 289 273 267 262 242 236 227 231 231 241 247 245 249 260 262 268 274 275 282 279 278 277
250 259 260 273 288 294 305 309 310 315 323 323 312 293 280 275 277 273 267 262 264 258 243 232 239 245 252 257 262 271 274 271 273 276 279 283 283 283
251 258 260 268 275 284 287 290 292 293 303 312 317 313 299 289 278 280 273 265 259 254 250 245 261 266 274 280 283 281 274 273 279 283 280 295 293 286
251 256 264 268 272 273 272 272 261 249 277 298 296 294 293 287 279 272 268 268 267 266 265 259 258 262 267 276 290 277 269 277 288 292 292 290 286 287
249 252 258 265 267 267 267 268 264 253 255 258 260 264 268 271 268 269 268 269 272 278 279 276 274 275 273 275 274 269 282 290 291 294 291 287 286 290
248 256 264 266 265 267 272 269 266 263 254 249 250 251 254 258 261 264 267 271 277 281 279 276 268 279 280 278 277 279 289 295 292 288 287 288 290 293
249 253 259 263 260 266 271 268 263 264 269 266 258 254 254 254 257 260 262 266 270 275 276 271 273 279 277 278 283 292 300 291 282 289 292 292 287 284
251 253 257 260 262 259 259 262 261 262 258 259 258 257 253 253 257 259 263 267 272 275 272 267 262 266 280 283 293 300 295 293 293 293 292 290 289 291